Location: Chmeli�t?
(49.8978°N, 15.0526°E)
Time: 08:11:44
(UTC+00:00)

Cosmos 2074 Rocket - Pass Details

Date: 03 October 2020
Orbit: 967 x 987 km, 82.9° (Epoch: 30 October)

Event Time Altitude Azimuth Distance (km) Brightness Sun altitude
Rises 23:30:18 0° 339° (NNW) 3,693 7.6 -43.7°
Reaches altitude 10° 23:33:37 10° 322° (NW) 2,736 6.6 -43.6°
Enters shadow 23:33:50 11° 321° (NW) 2,687 6.6 -43.5°
